TimeCST,TemperatureF,Dew PointF,Humidity,Sea Level PressureIn,VisibilityMPH,Wind Direction,Wind SpeedMPH,Gust SpeedMPH,PrecipitationIn,Events,Conditions,WindDirDegrees,DateUTC
12:15 AM,30.2,23.0,75,30.36,10.0,Calm,Calm,-,N/A,,Clear,0,2013-01-07 06:15:00
12:35 AM,30.2,23.0,75,30.36,10.0,Calm,Calm,-,N/A,,Clear,0,2013-01-07 06:35:00
12:55 AM,26.6,23.0,86,30.35,10.0,Calm,Calm,-,N/A,,Clear,0,2013-01-07 06:55:00
1:15 AM,28.4,21.2,74,30.34,10.0,Calm,Calm,-,N/A,,Clear,0,2013-01-07 07:15:00
1:35 AM,26.6,21.2,80,30.33,10.0,Calm,Calm,-,N/A,,Clear,0,2013-01-07 07:35:00
1:55 AM,26.6,21.2,80,30.34,10.0,Calm,Calm,-,N/A,,Clear,0,2013-01-07 07:55:00
2:15 AM,28.4,21.2,74,30.34,10.0,Calm,Calm,-,N/A,,Clear,0,2013-01-07 08:15:00
2:35 AM,23.0,19.4,86,30.34,10.0,North,3.5,-,N/A,,Clear,360,2013-01-07 08:35:00
2:55 AM,24.8,19.4,80,30.34,10.0,Calm,Calm,-,N/A,,Clear,0,2013-01-07 08:55:00
3:15 AM,26.6,21.2,80,30.35,10.0,Calm,Calm,-,N/A,,Clear,0,2013-01-07 09:15:00
3:35 AM,26.6,21.2,80,30.34,10.0,Calm,Calm,-,N/A,,Clear,0,2013-01-07 09:35:00
3:55 AM,24.8,21.2,86,30.33,10.0,Calm,Calm,-,N/A,,Clear,0,2013-01-07 09:55:00
4:15 AM,26.6,21.2,80,30.32,10.0,Calm,Calm,-,N/A,,Clear,0,2013-01-07 10:15:00
4:35 AM,28.4,23.0,80,30.33,10.0,Calm,Calm,-,N/A,,Clear,0,2013-01-07 10:35:00
4:55 AM,28.4,23.0,80,30.32,10.0,Calm,Calm,-,N/A,,Clear,0,2013-01-07 10:55:00
5:15 AM,26.6,21.2,80,30.32,10.0,Calm,Calm,-,N/A,,Clear,0,2013-01-07 11:15:00
5:35 AM,26.6,21.2,80,30.31,10.0,Calm,Calm,-,N/A,,Clear,0,2013-01-07 11:35:00
5:55 AM,24.8,21.2,86,30.32,10.0,Calm,Calm,-,N/A,,Clear,0,2013-01-07 11:55:00
6:15 AM,23.0,21.2,93,30.31,10.0,Calm,Calm,-,N/A,,Clear,0,2013-01-07 12:15:00
6:35 AM,23.0,19.4,86,30.30,10.0,Calm,Calm,-,N/A,,Clear,0,2013-01-07 12:35:00
6:55 AM,23.0,19.4,86,30.31,10.0,Calm,Calm,-,N/A,,Clear,0,2013-01-07 12:55:00
7:15 AM,24.8,21.2,86,30.31,10.0,Calm,Calm,-,N/A,,Clear,0,2013-01-07 13:15:00
7:35 AM,23.0,19.4,86,30.30,10.0,Calm,Calm,-,N/A,,Clear,0,2013-01-07 13:35:00
7:55 AM,24.8,21.2,86,30.31,10.0,Calm,Calm,-,N/A,,Clear,0,2013-01-07 13:55:00
8:15 AM,26.6,23.0,86,30.31,10.0,Calm,Calm,-,N/A,,Clear,0,2013-01-07 14:15:00
8:35 AM,28.4,23.0,80,30.32,10.0,Calm,Calm,-,N/A,,Clear,0,2013-01-07 14:35:00
8:55 AM,30.2,26.6,86,30.33,10.0,Calm,Calm,-,N/A,,Clear,0,2013-01-07 14:55:00
9:15 AM,32.0,28.4,87,30.33,10.0,Calm,Calm,-,N/A,,Clear,0,2013-01-07 15:15:00
9:35 AM,35.6,28.4,75,30.33,10.0,Calm,Calm,-,N/A,,Clear,0,2013-01-07 15:35:00
9:55 AM,37.4,30.2,75,30.34,10.0,Calm,Calm,-,N/A,,Clear,0,2013-01-07 15:55:00
10:15 AM,39.2,30.2,70,30.34,10.0,Calm,Calm,-,N/A,,Clear,0,2013-01-07 16:15:00
10:35 AM,42.8,30.2,61,30.34,10.0,Calm,Calm,-,N/A,,Clear,0,2013-01-07 16:35:00
10:55 AM,44.6,30.2,57,30.32,10.0,SE,5.8,-,N/A,,Clear,130,2013-01-07 16:55:00
11:15 AM,46.4,30.2,53,30.31,10.0,SE,5.8,-,N/A,,Clear,140,2013-01-07 17:15:00
11:35 AM,48.2,32.0,54,30.29,10.0,East,5.8,-,N/A,,Clear,100,2013-01-07 17:35:00
11:55 AM,48.2,32.0,54,30.28,10.0,SE,6.9,-,N/A,,Clear,140,2013-01-07 17:55:00
12:15 PM,51.8,32.0,47,30.27,10.0,SSE,8.1,-,N/A,,Clear,150,2013-01-07 18:15:00
12:35 PM,51.8,32.0,47,30.24,10.0,SE,10.4,-,N/A,,Clear,140,2013-01-07 18:35:00
12:55 PM,53.6,32.0,44,30.23,10.0,SE,10.4,-,N/A,,Clear,140,2013-01-07 18:55:00
1:15 PM,53.6,32.0,44,30.19,10.0,SE,8.1,-,N/A,,Clear,140,2013-01-07 19:15:00
1:35 PM,53.6,32.0,44,30.18,10.0,ESE,12.7,16.1,N/A,,Clear,120,2013-01-07 19:35:00
1:55 PM,53.6,32.0,44,30.17,10.0,SE,13.8,-,N/A,,Clear,140,2013-01-07 19:55:00
2:15 PM,53.6,32.0,44,30.17,10.0,ESE,11.5,16.1,N/A,,Clear,120,2013-01-07 20:15:00
2:35 PM,53.6,30.2,41,30.15,10.0,SE,10.4,-,N/A,,Partly Cloudy,130,2013-01-07 20:35:00
2:55 PM,51.8,32.0,47,30.16,10.0,SSE,10.4,16.1,N/A,,Partly Cloudy,160,2013-01-07 20:55:00
3:15 PM,53.6,32.0,44,30.17,10.0,SSE,10.4,-,N/A,,Partly Cloudy,150,2013-01-07 21:15:00
3:35 PM,53.6,32.0,44,30.17,10.0,South,6.9,-,N/A,,Partly Cloudy,170,2013-01-07 21:35:00
3:55 PM,53.6,32.0,44,30.15,10.0,SE,6.9,-,N/A,,Mostly Cloudy,140,2013-01-07 21:55:00
4:15 PM,53.6,32.0,44,30.15,10.0,SE,8.1,-,N/A,,Overcast,130,2013-01-07 22:15:00
4:35 PM,53.6,32.0,44,30.15,10.0,SE,5.8,-,N/A,,Overcast,140,2013-01-07 22:35:00
4:55 PM,53.6,32.0,44,30.14,10.0,SE,10.4,-,N/A,,Overcast,140,2013-01-07 22:55:00
5:15 PM,53.6,32.0,44,30.16,10.0,SE,6.9,-,N/A,,Overcast,130,2013-01-07 23:15:00
5:35 PM,51.8,32.0,47,30.14,10.0,SE,6.9,-,N/A,,Mostly Cloudy,140,2013-01-07 23:35:00
6:15 PM,48.2,32.0,54,30.12,10.0,SE,5.8,-,N/A,,Scattered Clouds,130,2013-01-08 00:15:00
6:35 PM,48.2,33.8,58,30.12,10.0,SE,3.5,-,N/A,,Scattered Clouds,140,2013-01-08 00:35:00
6:55 PM,46.4,33.8,62,30.14,10.0,Calm,Calm,-,N/A,,Partly Cloudy,0,2013-01-08 00:55:00
7:15 PM,44.6,32.0,61,30.14,10.0,Calm,Calm,-,N/A,,Scattered Clouds,0,2013-01-08 01:15:00
7:35 PM,44.6,33.8,66,30.15,10.0,Calm,Calm,-,N/A,,Mostly Cloudy,0,2013-01-08 01:35:00
7:55 PM,44.6,33.8,66,30.15,10.0,Calm,Calm,-,N/A,,Overcast,0,2013-01-08 01:55:00
8:15 PM,46.4,33.8,62,30.14,10.0,Calm,Calm,-,N/A,,Overcast,0,2013-01-08 02:15:00
8:35 PM,48.2,33.8,58,30.14,10.0,East,3.5,-,N/A,,Overcast,100,2013-01-08 02:35:00
8:55 PM,48.2,33.8,58,30.13,10.0,ESE,4.6,-,N/A,,Mostly Cloudy,110,2013-01-08 02:55:00
9:55 PM,42.8,33.8,70,30.12,10.0,ESE,4.6,-,N/A,,Scattered Clouds,120,2013-01-08 03:55:00
10:15 PM,46.4,35.6,66,30.12,10.0,Calm,Calm,-,N/A,,Overcast,0,2013-01-08 04:15:00
10:35 PM,46.4,35.6,66,30.11,10.0,Calm,Calm,-,N/A,,Overcast,0,2013-01-08 04:35:00
10:55 PM,46.4,35.6,66,30.11,10.0,East,3.5,-,N/A,,Overcast,80,2013-01-08 04:55:00
11:15 PM,46.4,33.8,62,30.10,10.0,East,3.5,-,N/A,,Mostly Cloudy,100,2013-01-08 05:15:00
11:35 PM,46.4,35.6,66,30.10,10.0,Calm,Calm,-,N/A,,Overcast,0,2013-01-08 05:35:00
11:55 PM,46.4,35.6,66,30.09,10.0,Calm,Calm,-,N/A,,Overcast,0,2013-01-08 05:55:00